Location: Godiavel Galaoual
(15.2485°N, 12.6604°W)
Time: 02:38:59
(UTC+00:00)

N. Korean satellite - Pass Details

Date: 11 December 2021
Orbit: 447 x 491 km, 97.3° (Epoch: 22 January)

Event Time Altitude Azimuth Distance (km) Brightness Sun altitude
Rises 06:17:11 0° 355° (N) 2,444 9.9 -11.9°
Reaches altitude 10° 06:19:23 10° 342° (NNW) 1,577 8.8 -11.4°
Maximum altitude 06:22:18 27° 283° (WNW) 900 7.3 -10.7°
Drops below altitude 10° 06:25:14 10° 223° (SW) 1,593 9.0 -10.1°
Sets 06:27:29 0° 211° (SSW) 2,474 10.1 -9.6°
